[[{"header":{"parameterUnit":"m.s-1","parameterCategory":1,"la1":30.2991,"la2":30.254,"lo1":-89.0895,"lo2":-89.0444,"dy":0.0017,"dx":0.0017,"nx":28,"ny":28,"refTime":"2025-05-30T03:00:00:Z","depth":0,"parameterNumber":2,"parameterNumberName":"U-component_of_WINDS"},"data":[0,0,0,0,0,0,0,0,0,0,0,0,0,0,0,0,0,0,0,0,0,0,0,0,0,0,0,0,0,0,0,0,0,0,0,0,0,0,0,0,0,0,0,0,0,0,0,0,0,0,0,0,0,0,0,0,0,0,2.6734,2.6734,0,2.6735,2.6735,2.6735,2.6659,2.6657,2.6655,2.6653,2.6662,2.6664,2.6666,0,0,0,0,0,0,0,0,0,0,0,0,0,2.6671,2.6672,2.6734,2.6734,2.6734,2.6735,2.6735,2.6735,2.6659,2.6657,2.6654,2.6652,2.6661,2.6664,2.6666,0,0,0,0,0,0,0,0,0,0,0,0,0,2.6688,2.6673,2.6734,2.6696,2.6692,2.6735,2.6735,2.6735,2.666,2.6656,2.6653,2.665,2.666,2.6664,2.6667,2.6748,0,0,2.6677,2.6678,0,0,0,0,0,0,0,0,2.6687,2.6691,2.6701,2.6698,2.6694,2.6693,2.6716,2.674,2.666,2.6672,2.6653,2.6649,2.6675,2.6677,2.6684,2.6749,2.6749,2.6677,2.6679,2.668,2.6681,0,0,0,0,0,0,0,2.6686,2.669,2.6734,2.6701,2.6697,2.6681,2.668,2.672,2.6691,2.6671,2.6665,2.6666,2.6673,2.6682,2.6684,2.6749,2.6677,2.668,2.6682,2.6683,2.688,2.6883,0,0,0,0,0,0,2.6689,2.669,2.6734,2.6734,2.6683,2.6684,2.6683,2.6697,2.6691,2.6686,2.6669,2.6663,2.6678,2.668,2.6684,2.6779,2.668,2.6683,2.6685,2.6877,2.6881,2.6884,0,0,0,0,0,0,2.6688,2.6694,2.6734,2.671,2.6714,2.6688,2.6705,2.6699,2.6707,2.6689,2.6684,2.6682,2.6675,2.668,2.6732,2.6778,2.6685,2.6688,2.6873,2.6878,2.6883,2.6969,0,0,0,0,0,0,2.6687,2.6694,2.6723,2.6711,2.6716,2.6781,2.6708,2.6701,2.6712,2.6704,2.67,2.6697,2.6673,2.6728,2.6735,2.6781,2.669,2.6869,2.6875,2.6881,2.6962,2.6976,2.6988,0,0,0,0,0,2.6685,2.6749,2.6725,2.6731,2.6751,2.6783,2.6786,2.6755,2.6716,2.6746,2.6734,2.6697,2.6772,2.6734,2.6742,2.6789,2.6866,2.6873,2.6881,2.6956,2.6973,2.6988,0,0,0,0,0,0,2.677,2.6747,2.672,2.6782,2.6785,2.677,2.6807,2.6775,2.6791,2.6783,2.6746,2.6746,2.6805,2.6802,2.676,2.6867,2.6812,2.6821,2.6867,2.6883,2.6896,2.6896,2.6693,0,0,0,0,0,2.6796,2.6821,2.6801,2.6858,2.686,2.6834,2.6847,2.6822,2.6825,2.6826,2.6818,2.6824,2.6848,2.6866,2.6887,2.6961,2.6959,2.6997,2.7011,2.7021,2.703,2.7069,2.7085,2.6909,2.6909,2.6909,0,0,2.685,2.684,2.6859,2.6875,2.6874,2.6903,2.6835,2.6869,2.6891,2.6832,2.688,2.6875,2.6879,2.6942,2.697,2.6942,2.7078,2.7031,2.704,2.7043,2.7078,2.7095,2.711,2.6914,2.6913,2.6912,0,0,2.6963,2.6958,2.7005,2.7005,2.7003,2.6985,2.6996,2.6986,2.6979,2.7026,2.6982,2.7009,2.7052,2.7056,2.7064,2.7178,2.7145,2.7186,2.7256,2.7294,2.7308,2.732,2.736,2.7375,2.7195,2.7195,2.7195,0,2.7031,2.7071,2.7034,2.707,2.7078,2.7023,2.7071,2.7073,2.708,2.7088,2.7056,2.7108,2.7107,2.717,2.7198,2.7206,2.7219,2.7187,2.7308,2.732,2.7331,2.7369,2.7384,2.72,2.72,2.7199,2.7199,0,2.7155,2.7183,2.7221,2.7226,2.7239,2.7281,2.7252,2.7269,2.7244,2.723,2.7279,2.7275,2.7295,2.7308,2.7285,2.7368,2.735,2.7314,2.7258,2.7353,2.7389,2.7403,2.7208,2.7206,2.7204,2.7203,0,0,2.7323,2.7305,2.732,2.7321,2.7314,2.7337,2.7377,2.7393,2.7409,2.7416,2.7449,2.7486,2.7451,2.7461,2.7437,2.7471,2.756,2.743,2.7429,2.7454,2.7652,2.7679,2.7697,2.7538,2.754,2.7543,2.7651,0,2.7432,2.7497,2.7464,2.7533,2.7559,2.7507,2.7542,2.7543,2.7531,2.7552,2.754,2.7566,2.7519,2.7524,2.7554,2.7543,2.76,2.7535,2.757,2.7572,2.757,2.7715,2.7744,2.7847,2.7665,2.7667,2.7669,0,2.7569,2.7578,2.7649,2.7637,2.7647,2.7678,2.769,2.7711,2.7712,2.77,2.771,2.7678,2.7718,2.7662,2.7717,2.7674,2.7686,2.7683,2.7686,2.7688,2.7626,2.7721,2.7879,2.7895,2.769,2.7689,2.7687,0,2.7684,2.7715,2.7761,2.7763,2.7751,2.7774,2.777,2.7767,2.7779,2.779,2.7797,2.7814,2.7824,2.7838,2.7813,2.7774,2.7872,2.7814,2.7865,2.7865,2.7888,2.7887,2.805,2.7896,2.7896,2.7896,2.7895,0,2.781,2.7856,2.7812,2.7841,2.789,2.7853,2.7904,2.7895,2.7893,2.792,2.7877,2.7904,2.7868,2.7892,2.7873,2.7921,2.7926,2.7919,2.7914,2.7923,2.7924,2.7931,2.7923,2.79,2.7899,2.7898,2.7897,0,2.7947,2.792,2.7966,2.7949,2.7946,2.7984,2.797,2.7997,2.7981,2.8015,2.8022,2.7997,2.8023,2.7999,2.8024,2.8011,2.8076,2.806,2.8075,2.807,2.8122,2.8118,2.8296,2.8317,2.815,2.8152,2.8153,0,2.8029,2.8062,2.8048,2.8062,2.806,2.8083,2.8093,2.8058,2.8072,2.8074,2.8101,2.8122,2.8137,2.8181,2.8167,2.8186,2.8171,2.8232,2.8173,2.8181,2.8171,2.8169,2.8172,2.8244,2.8246,2.8247,2.8249,0,2.8178,2.8162,2.8177,2.8189,2.8202,2.821,2.8214,2.8229,2.8192,2.821,2.8234,2.8245,2.827,2.8292,2.8306,2.8304,2.8271,2.8267,2.8279,2.829,2.8296,2.8293,2.8107,2.8263,2.8262,2.8261,2.826,2.8259,2.829,2.8316,2.831,2.8329,2.8328,2.8333,2.8357,2.8342,2.8361,2.8376,2.8355,2.8385,2.8384,2.8399,2.8401,2.8425,2.84,2.8419,2.8423,2.8429,2.8436,2.8292,2.8428,2.8428,2.8427,2.8427,2.8427,0,2.8435,2.8428,2.8446,2.8452,2.8467,2.8432,2.8435,2.845,2.8476,2.8477,2.8492,2.852,2.8541,2.8528,2.8546,2.8568,2.8553,2.8574,2.8572,2.8572,2.8458,2.8445,2.8585,2.8585,2.8585,2.8585,2.8585,2.8585,2.8513,2.8556,2.854,2.8583,2.8575,2.8602,2.8607,2.8612,2.8612,2.8644,2.866,2.865,2.8646,2.8663,2.8681,2.8677,2.8685,2.8712,2.8702,2.8596,2.858,2.8565,2.8553,2.8714,2.8714,2.8814,2.8815,2.8816]},{"header":{"parameterUnit":"m.s-1","parameterCategory":1,"la1":30.2991,"la2":30.254,"lo1":-89.0895,"lo2":-89.0444,"dy":0.0017,"dx":0.0017,"nx":28,"ny":28,"refTime":"2025-05-30T03:00:00:Z","depth":0,"parameterNumber":3,"parameterNumberName":"V-component_of_WINDS"},"data":[0,0,0,0,0,0,0,0,0,0,0,0,0,0,0,0,0,0,0,0,0,0,0,0,0,0,0,0,0,0,0,0,0,0,0,0,0,0,0,0,0,0,0,0,0,0,0,0,0,0,0,0,0,0,0,0,0,0,2.1876,2.1877,0,2.1943,2.1944,2.1945,2.1908,2.1906,2.1905,2.1903,2.1969,2.1972,2.1976,0,0,0,0,0,0,0,0,0,0,0,0,0,2.1711,2.1714,2.1876,2.1877,2.1878,2.1943,2.1944,2.1945,2.1909,2.1906,2.1904,2.1902,2.1968,2.1972,2.1976,0,0,0,0,0,0,0,0,0,0,0,0,0,2.1781,2.1715,2.1876,2.1867,2.1867,2.1943,2.1944,2.1945,2.1909,2.1906,2.1904,2.1901,2.1966,2.1971,2.1977,2.2064,0,0,2.1992,2.1995,0,0,0,0,0,0,0,0,2.1777,2.1787,2.1868,2.1868,2.1868,2.1915,2.191,2.1985,2.191,2.1893,2.1903,2.19,2.1953,2.1959,2.1978,2.2067,2.207,2.1993,2.1996,2.1998,2.2,0,0,0,0,0,0,0,2.1772,2.1784,2.1902,2.1869,2.1869,2.1859,2.1866,2.1924,2.1937,2.1894,2.1892,2.1901,2.1952,2.1973,2.1979,2.207,2.1993,2.1997,2.2001,2.2003,2.223,2.2233,0,0,0,0,0,0,2.1768,2.178,2.19,2.1905,2.1815,2.1864,2.1872,2.1902,2.1937,2.1939,2.1903,2.1899,2.1965,2.1973,2.1981,2.2082,2.1998,2.2003,2.2006,2.2228,2.2231,2.2234,0,0,0,0,0,0,2.1765,2.1779,2.1898,2.1842,2.1856,2.187,2.1905,2.1905,2.1925,2.1943,2.1945,2.1921,2.1963,2.1974,2.2043,2.2084,2.2005,2.201,2.2224,2.2229,2.2233,2.2287,0,0,0,0,0,0,2.176,2.1778,2.1813,2.1843,2.1859,2.196,2.1907,2.1909,2.1935,2.193,2.1961,2.1963,2.1962,2.2035,2.2048,2.209,2.2014,2.222,2.2226,2.2231,2.2282,2.2293,2.2303,0,0,0,0,0,2.1755,2.1826,2.1815,2.183,2.1903,2.1962,2.1971,2.1969,2.1939,2.1972,2.1983,2.1962,2.2078,2.2043,2.2057,2.2101,2.2218,2.2224,2.2231,2.2277,2.2291,2.2303,0,0,0,0,0,0,2.18,2.183,2.1818,2.1901,2.1929,2.1956,2.1998,2.1984,2.2021,2.2015,2.201,2.2017,2.2088,2.2102,2.2061,2.2185,2.2143,2.2153,2.2173,2.2186,2.2197,2.2191,2.2019,0,0,0,0,0,2.182,2.1867,2.189,2.1961,2.1976,2.1985,2.2011,2.2006,2.2035,2.2047,2.2063,2.2091,2.2133,2.2161,2.2201,2.2284,2.2289,2.2321,2.2332,2.234,2.2348,2.239,2.2403,2.2256,2.2256,2.2256,0,0,2.1861,2.1883,2.1913,2.197,2.1992,2.2039,2.1995,2.2048,2.2082,2.2055,2.212,2.2133,2.2163,2.2239,2.2273,2.2252,2.239,2.2349,2.2355,2.2358,2.2398,2.2412,2.2424,2.226,2.226,2.2259,0,0,2.1959,2.1982,2.2042,2.2064,2.2097,2.2103,2.2117,2.2146,2.2153,2.2219,2.2199,2.2239,2.2313,2.2334,2.2355,2.2459,2.244,2.2472,2.2526,2.2567,2.2578,2.2588,2.2623,2.2635,2.248,2.2481,2.2481,0,2.2005,2.2077,2.2074,2.2128,2.2152,2.213,2.219,2.2211,2.2256,2.2272,2.2249,2.2339,2.2358,2.2437,2.2462,2.2481,2.2495,2.2468,2.2577,2.2587,2.2597,2.2629,2.2642,2.2484,2.2484,2.2483,2.2483,0,2.213,2.218,2.2224,2.2268,2.2298,2.2354,2.2358,2.2388,2.2381,2.2388,2.2454,2.2476,2.2519,2.2538,2.2532,2.2615,2.2601,2.2578,2.2535,2.2614,2.2644,2.2657,2.2489,2.2488,2.2487,2.2486,0,0,2.2258,2.2299,2.2315,2.2333,2.2367,2.2405,2.2459,2.2501,2.2526,2.2557,2.26,2.2663,2.2641,2.2664,2.266,2.2696,2.2773,2.2668,2.2668,2.2684,2.2863,2.2878,2.2893,2.2762,2.2764,2.2766,2.2859,0,2.2356,2.2452,2.2451,2.2538,2.2582,2.2561,2.2608,2.2633,2.2641,2.2678,2.2686,2.2729,2.2699,2.2712,2.2747,2.2757,2.2809,2.275,2.2799,2.2801,2.279,2.2909,2.2926,2.3013,2.2871,2.2873,2.2875,0,2.2484,2.2519,2.2611,2.2636,2.2654,2.2697,2.2734,2.2771,2.2798,2.2801,2.2826,2.2816,2.2868,2.2825,2.2896,2.2856,2.2876,2.2884,2.2887,2.2889,2.2841,2.2912,2.3041,2.3052,2.2894,2.2893,2.2891,0,2.2564,2.2634,2.2698,2.2714,2.2746,2.2776,2.279,2.2815,2.2839,2.2872,2.2887,2.2925,2.2945,2.2974,2.2973,2.2943,2.3044,2.3002,2.3045,2.3045,2.3066,2.3064,2.3196,2.3083,2.3083,2.3083,2.3083,0,2.2672,2.2728,2.2734,2.2772,2.2834,2.2831,2.2892,2.2903,2.2925,2.2964,2.2949,2.2985,2.2983,2.302,2.302,2.3076,2.3086,2.3088,2.3087,2.3088,2.3087,2.3099,2.3092,2.3086,2.3086,2.3085,2.3084,0,2.2771,2.2778,2.2845,2.2869,2.2877,2.2921,2.2941,2.2976,2.2983,2.3032,2.3043,2.3053,2.3095,2.3097,2.3146,2.3145,2.3213,2.3207,2.3204,2.3202,2.3244,2.3239,2.3387,2.3405,2.3283,2.3284,2.3285,0,2.2839,2.2881,2.291,2.2936,2.2952,2.2993,2.3018,2.3016,2.3043,2.3075,2.3106,2.3147,2.3179,2.3247,2.3257,2.3293,2.3285,2.3335,2.3291,2.3289,2.3282,2.3279,2.3281,2.3342,2.3344,2.3345,2.3346,0,2.2956,2.2957,2.2994,2.3031,2.3062,2.3091,2.3118,2.314,2.3141,2.3171,2.3214,2.3239,2.3288,2.3327,2.3362,2.3375,2.336,2.336,2.3371,2.3372,2.3367,2.3367,2.3224,2.3356,2.3355,2.3354,2.3354,2.3353,2.304,2.3075,2.3101,2.3142,2.3162,2.3188,2.3221,2.3232,2.3268,2.3308,2.3305,2.3351,2.3374,2.342,2.3436,2.3471,2.3454,2.3471,2.3475,2.3479,2.3482,2.3364,2.3478,2.3477,2.3477,2.3477,2.3477,0,2.3154,2.3169,2.3207,2.3245,2.3277,2.3261,2.329,2.3317,2.3358,2.3382,2.3414,2.3461,2.3499,2.3512,2.3548,2.3573,2.3567,2.3583,2.3579,2.3582,2.3496,2.3481,2.3587,2.3587,2.3587,2.3587,2.3587,2.3587,2.3217,2.3275,2.3279,2.3346,2.3361,2.3407,2.3424,2.3446,2.3465,2.3519,2.3551,2.3559,2.3578,2.3615,2.3648,2.365,2.3663,2.3681,2.368,2.3599,2.3588,2.3578,2.3563,2.3684,2.3684,2.3762,2.3763,2.3763]}]]